Hourly Weather Abapo

Today, 23 October, Friday

Time Temperature Precipitation Wind Pressure Humidity
00:00 +24°C° 0 mm 1 mps 710 mmHg 86%
01:00 +24°C° 0 mm 1 mps 710 mmHg 86%
02:00 +24°C° 0 mm 1 mps 709 mmHg 87%
03:00 +24°C° 0 mm 1 mps 709 mmHg 87%
04:00 +24°C° 0 mm 1 mps 709 mmHg 86%
05:00 +23°C° 0 mm 1 mps 709 mmHg 86%
06:00 +26°C° 0 mm 1 mps 710 mmHg 77%
07:00 +28°C° 0 mm 1 mps 710 mmHg 68%
08:00 +30°C° 0 mm 1 mps 711 mmHg 59%
09:00 +30°C° 0 mm 1 mps 709 mmHg 59%
10:00 +34°C° 0 mm 1 mps 710 mmHg 48%
11:00 +39°C° 0 mm 1 mps 711 mmHg 36%
12:00 +39°C° 0.1 mm 1 mps 710 mmHg 38%
13:00 +38°C° 0.1 mm 2 mps 709 mmHg 39%
14:00 +37°C° 0.1 mm 3 mps 708 mmHg 40%
15:00 +36°C° 0.1 mm 2 mps 707 mmHg 41%
16:00 +36°C° 0.1 mm 2 mps 707 mmHg 42%
17:00 +35°C° 0.1 mm 2 mps 707 mmHg 43%
18:00 +34°C° 0 mm 2 mps 707 mmHg 49%
19:00 +31°C° 0 mm 1 mps 707 mmHg 56%
20:00 +29°C° 0 mm 1 mps 707 mmHg 63%
21:00 +28°C° 0 mm 1 mps 708 mmHg 66%
22:00 +27°C° 0 mm 1 mps 708 mmHg 68%
23:00 +27°C° 0 mm 1 mps 708 mmHg 71%

Tomorrow, 24 October, Saturday

Time Temperature Precipitation Wind Pressure Humidity
00:00 +26°C° 0 mm 1 mps 708 mmHg 73%
01:00 +26°C° 0 mm 1 mps 707 mmHg 75%
02:00 +26°C° 0 mm 1 mps 707 mmHg 77%
03:00 +25°C° 0 mm 1 mps 707 mmHg 79%
04:00 +25°C° 0 mm 1 mps 707 mmHg 81%
05:00 +22°C° 0 mm 0 mps 708 mmHg 83%
06:00 +25°C° 0 mm 0 mps 708 mmHg 73%
07:00 +27°C° 0 mm 0 mps 709 mmHg 64%
08:00 +30°C° 0 mm 0 mps 709 mmHg 54%
09:00 +34°C° 0 mm 1 mps 709 mmHg 48%
10:00 +36°C° 0 mm 1 mps 709 mmHg 42%
11:00 +39°C° 0 mm 2 mps 709 mmHg 35%
12:00 +39°C° 0 mm 2 mps 708 mmHg 36%
13:00 +38°C° 0 mm 3 mps 707 mmHg 37%
14:00 +38°C° 0 mm 3 mps 706 mmHg 38%
15:00 +37°C° 0 mm 3 mps 706 mmHg 39%
16:00 +37°C° 0 mm 3 mps 706 mmHg 39%
17:00 +37°C° 0 mm 3 mps 705 mmHg 40%
18:00 +35°C° 0 mm 3 mps 705 mmHg 46%
19:00 +32°C° 0 mm 2 mps 705 mmHg 52%
20:00 +30°C° 0 mm 1 mps 706 mmHg 58%
21:00 +29°C° 0 mm 1 mps 706 mmHg 61%
22:00 +28°C° 0 mm 1 mps 706 mmHg 63%
23:00 +28°C° 0 mm 1 mps 706 mmHg 66%

Day after tomorrow, 25 October, Sunday

Time Temperature Precipitation Wind Pressure Humidity
00:00 +25°C° 0 mm 0 mps 705 mmHg 68%
01:00 +25°C° 0 mm 0 mps 705 mmHg 70%
02:00 +24°C° 0 mm 0 mps 704 mmHg 72%
03:00 +24°C° 0 mm 0 mps 704 mmHg 74%
04:00 +23°C° 0 mm 0 mps 704 mmHg 75%
05:00 +23°C° 0 mm 0 mps 704 mmHg 77%
06:00 +28°C° 0 mm 1 mps 705 mmHg 68%
07:00 +30°C° 0 mm 1 mps 705 mmHg 58%
08:00 +33°C° 0 mm 1 mps 706 mmHg 49%
09:00 +36°C° 0 mm 2 mps 705 mmHg 43%
10:00 +39°C° 0 mm 3 mps 705 mmHg 36%
11:00 +42°C° 0 mm 3 mps 705 mmHg 30%
12:00 +43°C° 0 mm 4 mps 704 mmHg 29%
13:00 +45°C° 0 mm 5 mps 703 mmHg 28%
14:00 +45°C° 0 mm 6 mps 703 mmHg 26%
15:00 +44°C° 0 mm 6 mps 702 mmHg 29%
16:00 +42°C° 0 mm 6 mps 702 mmHg 31%
17:00 +41°C° 0 mm 6 mps 701 mmHg 33%
18:00 +37°C° 0 mm 5 mps 702 mmHg 39%
19:00 +35°C° 0 mm 4 mps 702 mmHg 46%
20:00 +31°C° 0 mm 3 mps 703 mmHg 53%
21:00 +30°C° 0 mm 2 mps 703 mmHg 56%
22:00 +29°C° 0 mm 2 mps 703 mmHg 58%
23:00 +28°C° 0 mm 1 mps 703 mmHg 61%

, 26 October, Monday

Time Temperature Precipitation Wind Pressure Humidity
00:00 +28°C° 0 mm 1 mps 703 mmHg 63%
01:00 +27°C° 0 mm 1 mps 703 mmHg 66%
02:00 +27°C° 0 mm 1 mps 703 mmHg 68%
03:00 +26°C° 1.1 mm 2 mps 704 mmHg 73%
04:00 +26°C° 1.1 mm 2 mps 706 mmHg 78%
05:00 +25°C° 1.1 mm 3 mps 707 mmHg 83%
06:00 +25°C° 0.2 mm 3 mps 708 mmHg 83%
07:00 +24°C° 0.2 mm 2 mps 709 mmHg 82%
08:00 +24°C° 0.2 mm 2 mps 711 mmHg 81%
09:00 +25°C° 0 mm 2 mps 711 mmHg 76%
10:00 +25°C° 0 mm 2 mps 711 mmHg 70%
11:00 +26°C° 0 mm 3 mps 712 mmHg 64%
12:00 +28°C° 0 mm 3 mps 711 mmHg 50%
13:00 +31°C° 0 mm 3 mps 711 mmHg 36%
14:00 +34°C° 0 mm 3 mps 711 mmHg 21%
15:00 +33°C° 0 mm 3 mps 710 mmHg 24%
16:00 +33°C° 0 mm 3 mps 710 mmHg 27%
17:00 +31°C° 0 mm 2 mps 709 mmHg 29%
18:00 +29°C° 0 mm 2 mps 710 mmHg 35%
19:00 +27°C° 0 mm 1 mps 710 mmHg 40%
20:00 +23°C° 0 mm 0 mps 710 mmHg 46%
21:00 +24°C° 0 mm 1 mps 710 mmHg 46%
22:00 +24°C° 0 mm 1 mps 710 mmHg 47%
23:00 +23°C° 0 mm 1 mps 710 mmHg 48%

26 October, Monday

Time Temperature Precipitation Wind Pressure Humidity
00:00 +28°C° 0 mm 1 mps 703 mmHg 63%
01:00 +27°C° 0 mm 1 mps 703 mmHg 66%
02:00 +27°C° 0 mm 1 mps 703 mmHg 68%
03:00 +26°C° 1.1 mm 2 mps 704 mmHg 73%
04:00 +26°C° 1.1 mm 2 mps 706 mmHg 78%
05:00 +25°C° 1.1 mm 3 mps 707 mmHg 83%
06:00 +25°C° 0.2 mm 3 mps 708 mmHg 83%
07:00 +24°C° 0.2 mm 2 mps 709 mmHg 82%
08:00 +24°C° 0.2 mm 2 mps 711 mmHg 81%
09:00 +25°C° 0 mm 2 mps 711 mmHg 76%
10:00 +25°C° 0 mm 2 mps 711 mmHg 70%
11:00 +26°C° 0 mm 3 mps 712 mmHg 64%
12:00 +28°C° 0 mm 3 mps 711 mmHg 50%
13:00 +31°C° 0 mm 3 mps 711 mmHg 36%
14:00 +34°C° 0 mm 3 mps 711 mmHg 21%
15:00 +33°C° 0 mm 3 mps 710 mmHg 24%
16:00 +33°C° 0 mm 3 mps 710 mmHg 27%
17:00 +31°C° 0 mm 2 mps 709 mmHg 29%
18:00 +29°C° 0 mm 2 mps 710 mmHg 35%
19:00 +27°C° 0 mm 1 mps 710 mmHg 40%
20:00 +23°C° 0 mm 0 mps 710 mmHg 46%
21:00 +24°C° 0 mm 1 mps 710 mmHg 46%
22:00 +24°C° 0 mm 1 mps 710 mmHg 47%
23:00 +23°C° 0 mm 1 mps 710 mmHg 48%

27 October, Tuesday

Time Temperature Precipitation Wind Pressure Humidity
00:00 +22°C° 0 mm 1 mps 710 mmHg 49%
01:00 +22°C° 0 mm 1 mps 709 mmHg 51%
02:00 +21°C° 0 mm 1 mps 709 mmHg 52%
03:00 +21°C° 0 mm 1 mps 709 mmHg 53%
04:00 +20°C° 0 mm 1 mps 708 mmHg 54%
05:00 +20°C° 0 mm 1 mps 708 mmHg 55%
06:00 +23°C° 0 mm 1 mps 709 mmHg 48%
07:00 +26°C° 0 mm 1 mps 709 mmHg 41%
08:00 +28°C° 0 mm 1 mps 710 mmHg 34%
09:00 +30°C° 0 mm 1 mps 709 mmHg 32%
10:00 +32°C° 0 mm 2 mps 709 mmHg 29%
11:00 +35°C° 0 mm 3 mps 708 mmHg 26%
12:00 +35°C° 0 mm 3 mps 707 mmHg 26%
13:00 +36°C° 0 mm 4 mps 706 mmHg 26%
14:00 +36°C° 0 mm 4 mps 705 mmHg 26%
15:00 +36°C° 0 mm 4 mps 705 mmHg 28%
16:00 +35°C° 0 mm 4 mps 705 mmHg 29%
17:00 +35°C° 0 mm 4 mps 704 mmHg 30%
18:00 +31°C° 0 mm 3 mps 704 mmHg 37%
19:00 +29°C° 0 mm 2 mps 705 mmHg 45%
20:00 +26°C° 0 mm 1 mps 705 mmHg 52%
21:00 +25°C° 0 mm 1 mps 705 mmHg 55%
22:00 +25°C° 0 mm 1 mps 705 mmHg 59%
23:00 +24°C° 0 mm 1 mps 705 mmHg 63%

28 October, Wednesday

Time Temperature Precipitation Wind Pressure Humidity
00:00 +23°C° 0 mm 1 mps 704 mmHg 64%
01:00 +21°C° 0 mm 0 mps 704 mmHg 66%
02:00 +20°C° 0 mm 0 mps 703 mmHg 67%
03:00 +20°C° 0 mm 0 mps 703 mmHg 68%
04:00 +22°C° 0 mm 1 mps 703 mmHg 69%
05:00 +22°C° 0 mm 1 mps 703 mmHg 70%
06:00 +25°C° 0 mm 1 mps 704 mmHg 60%
07:00 +28°C° 0 mm 1 mps 705 mmHg 51%
08:00 +29°C° 0 mm 0 mps 706 mmHg 41%
09:00 +33°C° 0 mm 1 mps 706 mmHg 37%
10:00 +35°C° 0 mm 1 mps 706 mmHg 32%
11:00 +39°C° 0 mm 2 mps 706 mmHg 28%
12:00 +39°C° 0 mm 2 mps 705 mmHg 27%
13:00 +40°C° 0 mm 2 mps 705 mmHg 26%
14:00 +40°C° 0 mm 3 mps 704 mmHg 25%
15:00 +40°C° 0 mm 3 mps 704 mmHg 27%
16:00 +39°C° 0 mm 3 mps 704 mmHg 29%
17:00 +38°C° 0 mm 3 mps 704 mmHg 31%
18:00 +35°C° 0.1 mm 2 mps 704 mmHg 42%
19:00 +31°C° 0.1 mm 2 mps 704 mmHg 53%
20:00 +28°C° 0.1 mm 1 mps 705 mmHg 64%
21:00 +27°C° 0 mm 1 mps 705 mmHg 66%
22:00 +27°C° 0 mm 2 mps 706 mmHg 68%
23:00 +26°C° 0 mm 2 mps 707 mmHg 70%
Show more